Location: *
(34.8620°S, 39.3380°E)
Time: 21:33:26
(UTC+00:00)

ISS - Pass Details

Date: 28 October 2021
Orbit: 417 x 423 km, 51.6° (Epoch: 28 November)

Event Time Altitude Azimuth Distance (km) Brightness Sun altitude
Rises 18:18:19 0° 217° (SW) 2,416 1.3 -27.4°
Reaches altitude 10° 18:20:46 10° 200° (SSW) 1,544 -0.1 -27.8°
Enters shadow 18:21:55 16° 185° (S) 1,222 -0.9 -28.0°
